Date String (YYYY-MM-DD hh:mm:ss) UTC,Instrument flags,absolute air pressure of the measurement (hPa),sample flow rate (lpm),inlet stack bypass flow (lpm),air temperature of the measurement (°C),ambient temperature measured by the external sensor (°C),aerosol sample conditioner tube jacket temperature (°C),OPC LED temperature (°C),internal box temperature (°C),relative humidity of the measurement (%),span deviation,mass concentration of particles derived from Lorenz-Mie calculation of OPC scattering (μg/m³),mass concentration of particles derived from Lorenz-Mie calculation of OPC scattering (μg/m³),mass concentration of particles derived from Lorenz-Mie calculation of OPC scattering (μg/m³)
DateTimeUTC,F1_M11,P_M11,Q1_M11,Q2_M11,T1_M11,T2_M11,T3_M11,T4_M11,T5_M11,U1_M11,ZSPAN_M11,X0_M11,X2_M11,X1_M11
2024-03-20 12:00:00,SystemResetWarning,0829.1,5.00,000.00,020.1,019.5,000.0,028.7,021.9,17.4,0000.0,0006.15,0002.24,0001.33
2024-03-20 12:01:00,SystemResetWarning,0829.1,5.00,000.00,020.1,019.5,000.0,028.7,021.9,17.4,0000.0,0006.21,0002.25,0001.34
2024-03-20 12:02:00,SystemResetWarning,0829.1,5.00,000.00,020.1,019.5,000.0,028.7,021.9,17.5,0000.0,0006.89,0002.27,0001.35
2024-03-20 12:03:00,SystemResetWarning,0829.1,5.00,000.00,020.1,019.5,000.0,028.7,021.9,17.5,0000.0,0007.15,0002.28,0001.37
2024-03-20 12:04:00,SystemResetWarning,0829.1,5.00,000.00,020.1,019.5,000.0,028.7,021.9,17.5,0000.0,0007.26,0002.31,0001.37
2024-03-20 12:05:00,SystemResetWarning,0829.1,5.00,000.00,020.1,019.5,000.0,028.7,021.9,17.5,0000.0,0007.76,0002.39,0001.38
2024-03-20 12:06:00,SystemResetWarning,0829.1,5.00,000.00,020.1,019.5,000.0,028.7,021.9,17.5,0000.0,0007.76,0002.34,0001.39
2024-03-20 12:07:00,SystemResetWarning,0829.1,5.00,000.00,020.1,019.5,000.0,028.7,021.9,17.5,0000.0,0007.81,0002.34,0001.38
2024-03-20 12:08:00,SystemResetWarning,0829.1,5.00,000.00,020.1,019.5,000.0,028.7,021.9,17.5,0000.0,0007.79,0002.33,0001.38
2024-03-20 12:09:00,SystemResetWarning,0829.1,5.00,000.00,020.1,019.5,000.0,028.7,021.9,17.6,0000.0,0007.68,0002.25,0001.38
2024-03-20 12:10:00,SystemResetWarning,0829.1,5.00,000.00,020.1,019.5,000.0,028.7,021.9,17.6,0000.0,0006.44,0002.19,0001.37
2024-03-20 12:11:00,SystemResetWarning,0829.1,5.00,000.00,020.1,019.5,000.0,028.7,021.9,17.6,0000.0,0005.79,0002.25,0001.38
2024-03-20 12:12:00,SystemResetWarning,0829.1,5.00,000.00,020.1,019.5,000.0,028.7,021.9,17.6,0000.0,0006.01,0002.33,0001.39
2024-03-20 12:13:00,SystemResetWarning,0829.1,5.01,000.00,020.1,019.5,000.0,028.7,021.9,17.5,0000.0,0005.94,0002.31,0001.37
2024-03-20 12:14:00,SystemResetWarning,0829.1,5.00,000.00,020.1,019.5,000.0,028.7,021.9,17.5,0000.0,0005.36,0002.30,0001.37
2024-03-20 12:15:00,SystemResetWarning,0829.2,5.00,000.00,020.1,019.5,000.0,028.7,021.9,17.5,0000.0,0005.42,0002.30,0001.37
2024-03-20 12:16:00,SystemResetWarning,0829.1,5.00,000.00,020.1,019.5,000.0,028.7,021.9,17.4,0000.0,0004.74,0002.24,0001.36
2024-03-20 12:17:00,SystemResetWarning,0829.2,5.00,000.00,020.1,019.5,000.0,028.7,021.9,17.4,0000.0,0004.86,0002.19,0001.35
2024-03-20 12:18:00,SystemResetWarning,0829.2,5.00,000.00,020.1,019.5,000.0,028.7,021.9,17.4,0000.0,0004.76,0002.18,0001.35
2024-03-20 12:19:00,SystemResetWarning,0829.2,5.00,000.00,020.1,019.5,000.0,028.7,021.9,17.4,0000.0,0004.84,0002.21,0001.34
2024-03-20 12:20:00,SystemResetWarning,0829.2,5.00,000.00,020.1,019.5,000.0,028.7,021.9,17.3,0000.0,0005.05,0002.27,0001.33
2024-03-20 12:21:00,SystemResetWarning,0829.2,5.00,000.00,020.1,019.5,000.0,028.7,021.9,17.3,0000.0,0005.46,0002.34,0001.34
2024-03-20 12:22:00,SystemResetWarning,0829.2,5.00,000.00,020.1,019.5,000.0,028.7,021.9,17.3,0000.0,0005.44,0002.32,0001.33
2024-03-20 12:23:00,SystemResetWarning,0829.3,5.00,000.00,020.1,019.5,000.0,028.7,021.9,17.3,0000.0,0006.17,0002.32,0001.31
2024-03-20 12:24:00,SystemResetWarning,0829.2,5.00,000.00,020.1,019.5,000.0,028.7,021.9,17.2,0000.0,0006.46,0002.32,0001.32
2024-03-20 12:25:00,SystemResetWarning,0829.3,5.00,000.00,020.1,019.5,000.0,028.7,021.9,17.1,0000.0,0007.25,0002.36,0001.32
2024-03-20 12:26:00,SystemResetWarning,0829.2,5.00,000.00,020.1,019.5,000.0,028.7,021.9,17.2,0000.0,0008.09,0002.36,0001.30
2024-03-20 12:27:00,SystemResetWarning,0829.2,5.00,000.00,020.1,019.5,000.0,028.7,021.9,17.1,0000.0,0008.31,0002.43,0001.30
2024-03-20 12:28:00,SystemResetWarning,0829.2,5.00,000.00,020.1,019.5,000.0,028.7,021.9,17.1,0000.0,0008.41,0002.45,0001.30
2024-03-20 12:29:00,SystemResetWarning,0829.2,5.00,000.00,020.1,019.5,000.0,028.7,021.9,17.1,0000.0,0008.56,0002.46,0001.29
2024-03-20 12:30:00,SystemResetWarning,0829.2,5.00,000.00,020.1,019.5,000.0,028.6,021.9,17.1,0000.0,0008.68,0002.41,0001.29
2024-03-20 12:31:00,SystemResetWarning,0829.2,5.00,000.00,020.1,019.5,000.0,028.6,021.9,17.1,0000.0,0008.89,0002.37,0001.30
2024-03-20 12:32:00,SystemResetWarning,0829.2,5.00,000.00,020.1,019.4,000.0,028.6,021.9,17.2,0000.0,0008.90,0002.38,0001.30
2024-03-20 12:33:00,SystemResetWarning,0829.2,5.00,000.00,020.1,019.4,000.0,028.6,021.9,17.2,0000.0,0009.02,0002.39,0001.29
2024-03-20 12:34:00,SystemResetWarning,0829.3,5.00,000.00,020.1,019.4,000.0,028.7,021.9,17.2,0000.0,0008.72,0002.34,0001.28
2024-03-20 12:35:00,SystemResetWarning,0829.3,4.99,000.00,020.1,019.4,000.0,028.7,021.9,17.1,0000.0,0008.54,0002.34,0001.28
2024-03-20 12:36:00,SystemResetWarning,0829.3,5.00,000.00,020.1,019.4,000.0,028.7,021.9,17.1,0000.0,0008.44,0002.34,0001.29
2024-03-20 12:37:00,SystemResetWarning,0829.3,5.01,000.00,020.1,019.4,000.0,028.6,021.9,17.1,0000.0,0007.88,0002.40,0001.29
2024-03-20 12:38:00,SystemResetWarning,0829.2,5.01,000.00,020.1,019.4,000.0,028.6,021.9,17.1,0000.0,0007.83,0002.37,0001.29
2024-03-20 12:39:00,SystemResetWarning,0829.2,4.99,000.00,020.1,019.4,000.0,028.6,021.8,17.1,0000.0,0007.60,0002.41,0001.29
2024-03-20 12:40:00,SystemResetWarning,0829.2,4.99,000.00,020.1,019.4,000.0,028.6,021.8,17.0,0000.0,0007.64,0002.40,0001.30
2024-03-20 12:41:00,SystemResetWarning,0829.2,4.99,000.00,020.1,019.4,000.0,028.6,021.8,17.0,0000.0,0007.46,0002.42,0001.30
2024-03-20 12:42:00,SystemResetWarning,0829.2,5.00,000.00,020.0,019.4,000.0,028.6,021.8,17.0,0000.0,0007.20,0002.42,0001.28
2024-03-20 12:43:00,SystemResetWarning,0829.2,5.01,000.00,020.0,019.4,000.0,028.6,021.8,17.0,0000.0,0006.88,0002.39,0001.28
2024-03-20 12:44:00,SystemResetWarning,0829.3,5.00,000.00,020.0,019.3,000.0,028.6,021.8,16.9,0000.0,0006.81,0002.45,0001.28
2024-03-20 12:45:00,SystemResetWarning,0829.3,5.00,000.00,020.0,019.3,000.0,028.6,021.8,16.8,0000.0,0007.01,0002.45,0001.28
2024-03-20 12:46:00,SystemResetWarning,0829.2,4.99,000.00,020.0,019.3,000.0,028.6,021.8,16.9,0000.0,0007.09,0002.45,0001.29
2024-03-20 12:47:00,SystemResetWarning,0829.2,5.00,000.00,020.0,019.3,000.0,028.6,021.8,16.6,0000.0,0006.11,0002.41,0001.27
2024-03-20 12:48:00,SystemResetWarning,0829.2,5.00,000.00,020.0,019.3,000.0,028.6,021.8,16.4,0000.0,0006.22,0002.41,0001.26
2024-03-20 12:49:00,SystemResetWarning,0829.2,5.00,000.00,020.0,019.3,000.0,028.6,021.8,16.4,0000.0,0006.38,0002.37,0001.25
2024-03-20 12:50:00,SystemResetWarning,0829.2,5.01,000.00,020.0,019.3,000.0,028.6,021.8,16.3,0000.0,0006.26,0002.30,0001.25
2024-03-20 12:51:00,SystemResetWarning,0829.1,5.00,000.00,020.0,019.3,000.0,028.6,021.8,16.3,0000.0,0005.91,0002.33,0001.24
2024-03-20 12:52:00,SystemResetWarning,0829.2,5.01,000.00,020.0,019.3,000.0,028.6,021.7,16.3,0000.0,0005.82,0002.33,0001.23
2024-03-20 12:53:00,SystemResetWarning,0829.2,5.00,000.00,020.0,019.3,000.0,028.6,021.7,16.2,0000.0,0005.94,0002.34,0001.22
2024-03-20 12:54:00,SystemResetWarning,0829.2,5.00,000.00,019.9,019.3,000.0,028.6,021.7,16.3,0000.0,0006.12,0002.35,0001.20
2024-03-20 12:55:00,SystemResetWarning,0829.2,5.00,000.00,019.9,019.2,000.0,028.5,021.7,16.2,0000.0,0006.18,0002.30,0001.19
2024-03-20 12:56:00,SystemResetWarning,0829.2,5.00,000.00,019.9,019.2,000.0,028.5,021.7,16.2,0000.0,0005.82,0002.27,0001.20
2024-03-20 12:57:00,SystemResetWarning,0829.2,5.00,000.00,019.9,019.2,000.0,028.5,021.7,16.3,0000.0,0005.28,0002.23,0001.18
2024-03-20 12:58:00,SystemResetWarning,0829.2,5.00,000.00,019.9,019.2,000.0,028.5,021.7,16.4,0000.0,0005.38,0002.21,0001.19
2024-03-20 12:59:00,SystemResetWarning,0829.2,5.00,000.00,019.9,019.2,000.0,028.5,021.7,16.4,0000.0,0005.30,0002.14,0001.20
